Preview of NWS' New Version of Forecast
This preview is not operational and should not be used for support decisions.
Latest weather observations around

Bakersfield, Meadows Field Airport (KBFL)

Using English Units (Switch to International System of Units)
Date/ Time (PST) Wind (mph) Vis. (mi) Weather Sky Cond. Temp (°F) Rel. Humidity Wind Chill (°F) Heat Index (°F) Pressure Precip. (in)
Air Dwpt 6 hour Altimeter (inHg) Sea level (inHg) 1 hr 3 hr 6 hr
Max Min
Feb 19 06:54 E 6 10 Mostly Clear FEW041 39 32     76% 35   30.18 30.18      
Feb 19 05:54 E 5 10 Cloudy OVC041 39 32     76% 36   30.17 30.17      
Feb 19 04:54 E 5 10 Clear CLR 38 32     79% 34   30.17 30.17      
Feb 19 03:54 E 5 10 Clear   38 33     82% 34   30.17 30.17      
Feb 19 02:54 E 7 10 Mostly Clear FEW042 38 32     79% 33   30.19 30.19      
Feb 19 01:54 E 6 10 Mostly Clear FEW065 39 33     79% 35   30.2 30.2      
Feb 19 00:54 Calm 10 Cloudy OVC065 40 34     79%     30.21 30.22      
Feb 18 23:54 Calm 10 Cloudy OVC065 38 33     82%     30.21 30.21      
Feb 18 22:54 Calm 10 Mostly Cloudy BKN065 39 32     76%     30.22 30.22      
Feb 18 21:54 ENE 3 10 Partly Cloudy SCT065 42 34     73% 40   30.21 30.21      
Feb 18 20:54 E 5 10 Mostly Clear FEW043 43 34     70% 40   30.19 30.19      
Feb 18 19:54 E 3 10 Mostly Cloudy BKN043 44 34     67% 43   30.18 30.18      
Feb 18 18:54 S 3 10 Mostly Cloudy BKN049 44 36     73% 43   30.17 30.18      
Feb 18 17:54 ENE 5 10 Mostly Clear FEW070 47 33     58% 45   30.14 30.14      
Feb 18 16:54 N 6 10 Mostly Cloudy BKN070 49 32     52% 46   30.13 30.13      
Feb 18 15:54 NNE 6 10 Cloudy BKN046 OVC060 50 31     48%     30.13 30.13      
Feb 18 14:54 NW 9 10 Mostly Cloudy SCT043 SCT055 BKN070 51 31     46%     30.13 30.13      
Feb 18 13:54 NW 9 10 Mostly Cloudy FEW037 BKN070 49 32     52% 45   30.14 30.14      
Feb 18 12:54 NW 9 10 Mostly Cloudy SCT034 SCT042 BKN070 51 35     54%     30.16 30.16      
Feb 18 11:54 W 6 10 Partly Cloudy FEW029 SCT041 47 34     60% 44   30.18 30.18      
Feb 18 10:54 W 9 10 Mostly Clear FEW021 FEW031 46 36     68% 41   30.19 30.19      
Feb 18 09:54 NW 7 10 Cloudy FEW031 OVC080 46 37     71% 42   30.18 30.18      
Feb 18 08:54 NW 6 10 Cloudy FEW027 SCT037 OVC075 40 36     86% 36   30.17 30.17      
Feb 18 07:54 Calm 10 Cloudy SCT031 SCT060 OVC080 41 36     82%     30.15 30.15      
Feb 18 06:54 ENE 3 10 Mostly Cloudy BKN080 36 32     85% 33   30.13 30.13      
Feb 18 05:54 E 5 10 Mostly Clear FEW070 39 34     82% 36   30.11 30.11      
Feb 18 04:54 ESE 3 10 Cloudy OVC070 38 34     85% 36   30.1 30.1      
Feb 18 03:54 ENE 3 10 Clear CLR 39 34     82% 37   30.09 30.09      
Feb 18 02:54 E 5 10 Mostly Clear FEW027 39 34     82% 36   30.09 30.09      
Feb 18 01:54 Calm 10 Cloudy SCT027 BKN038 OVC060 40 34     79%     30.1 30.1      
Feb 18 01:50 ESE 5 10 Cloudy BKN027 BKN048 OVC060 39 34     81% 36   30.1        
Feb 18 00:54 Calm 10 Clear   36 32     85%     30.1 30.1      
Feb 17 23:54 S 3 10 Clear CLR 37 32     82% 35   30.1 30.1      
Feb 17 22:54 N 6 10 Clear CLR 40 34     79% 36   30.08 30.08      
Feb 17 21:54 WNW 10 10 Clear CLR 40 34     79% 33   30.07 30.07     0
Feb 17 20:54 W 9 10 Mostly Cloudy BKN110 43 36     76% 38   30.04 30.04      
Feb 17 19:54 WNW 8 10 Mostly Clear FEW100 44 37     76% 40   30.02 30.02      
Feb 17 18:54 NNW 8 10 Cloudy SCT090 OVC100 45 37     74% 41   30 30 0 0  
Feb 17 17:54 NNW 11 10 Light Rain SCT049 SCT070 OVC085 46 37     71% 41   29.98 29.98 0    
Feb 17 16:54 N 15 10 Mostly Cloudy FEW050 BKN120 49 35     59% 43   29.96 29.96      
Feb 17 15:54 N 18 10 Mostly Clear FEW120 52 34     50%     29.95 29.95     0
Feb 17 14:54 WNW 9 10 Clear CLR 53 41     63%     29.96 29.95 0    
Feb 17 13:54 W 8 10 Cloudy SCT031 BKN040 OVC110 51 38     61%     29.97 29.97      
Feb 17 12:54 SSW 9 10 Mostly Cloudy FEW026 BKN035 BKN050 50 39     66%     29.99 29.99   0  
Feb 17 11:54 SSE 10 10 Mostly Cloudy FEW035 SCT070 BKN100 48 38     68% 43   30.03 30.02 0    
Feb 17 10:54 ESE 7 10 Cloudy SCT045 SCT060 OVC080 45 36     71% 41   30.04 30.04 0    
Feb 17 09:54 S 7 9 Light Rain BKN032 BKN039 OVC045 44 38     79% 40   30.07 30.06 0   0
Feb 17 08:54 SE 7 10 Cloudy FEW040 BKN050 OVC070 43 38     82% 39   30.07 30.06      
Feb 17 07:54 E 7 10 Mostly Cloudy BKN100 41 36     82% 36   30.08 30.08      
Feb 17 06:54 E 3 10 Mostly Clear FEW110 39 35     86% 37   30.09 30.09      
Feb 17 05:54 Calm 10 Clear CLR 38 34     85%     30.09 30.09      
Feb 17 04:54 Calm 10 Partly Cloudy SCT047 38 34     85%     30.1 30.1      
Feb 17 03:54 NW 7 10 Partly Cloudy SCT050 38 36     92% 33   30.11 30.11      
Feb 17 02:54 W 6 9 Mostly Cloudy BKN055 41 39     93% 37   30.11 30.11      
Feb 17 02:46 W 5 2 Fog/Mist OVC050 41 39     93% 38   30.12        
Feb 17 02:38 NW 5 1.25 Fog/Mist OVC050 41 39     93% 38   30.12        
Feb 17 02:32 NW 6 2.5 Fog/Mist OVC050 41 39     93% 37   30.12        
Feb 17 02:24 NNW 5 1.5 Fog/Mist BKN050 41 39     93% 38   30.12        
Feb 17 02:19 NW 5 0.5 Fog BKN050 40 38     93% 37   30.12        
Feb 17 02:11 NW 6 1.25 Fog/Mist SCT050 39 37     93% 35   30.13        
Feb 17 01:54 N 6 8 Clear CLR 40 38     93% 36   30.13 30.12      
Feb 17 00:54 Calm 10 Clear CLR 42 39     89%     30.13 30.13      
Feb 16 23:54 W 3 10 Cloudy BKN030 BKN035 OVC065 45 39     80% 44   30.14 30.14      
Feb 16 22:54 Calm 10 Mostly Clear FEW032 45 39     80%     30.14 30.14      
Feb 16 21:54 N 13 10 Clear   44 39     82% 38   30.14 30.13      
Feb 16 20:54 N 7 10 Partly Cloudy SCT042 45 40     82% 41   30.11 30.11 0    
Feb 16 19:54 NNW 6 10 Mostly Cloudy FEW042 BKN050 BKN080 47 41     80% 44   30.11 30.11 0    
Feb 16 18:54 NNW 8 10 Cloudy BKN044 OVC060 49 40     71% 45   30.11 30.11 0 0  
Feb 16 17:54 NNE 5 10 Cloudy FEW048 OVC090 52 38     59%     30.09 30.09      
Feb 16 16:54 NNW 9 10 Mostly Cloudy BKN070 54 36     50%     30.1 30.1      
Feb 16 15:54 N 5 10 Cloudy FEW042 BKN060 OVC080 54 37     53%     30.11 30.11      
Feb 16 14:54 NW 9 10 Clear CLR 54 36     50%     30.12 30.11      
Feb 16 13:54 NW 9 10 Mostly Cloudy FEW040 SCT050 BKN060 55 36     48%     30.14 30.14      
Feb 16 12:54 WNW 10 10 Partly Cloudy SCT037 SCT055 53 38     56%     30.17 30.17      
Feb 16 11:54 NNW 5 10 Cloudy OVC037 53 39     59%     30.2 30.2      
Feb 16 11:29 N 3 10 Cloudy FEW029 BKN039 OVC055 51 37     59%     30.21        
Feb 16 11:21 NW 6 10 Mostly Cloudy BKN029 BKN042 52 38     59%     30.21        
Feb 16 10:54 Calm 10 Mostly Cloudy SCT026 BKN060 51 38     61%     30.22 30.22      
Feb 16 09:54 Calm 10 Cloudy OVC065 50 39     66%     30.22 30.22      
Feb 16 08:54 E 5 10 Partly Cloudy SCT070 46 41     82% 44   30.21 30.2      
Feb 16 08:13 E 5 8 Cloudy FEW002 OVC070 43 41     93% 40   30.21        
Feb 16 07:54 E 6 1 Fog/Mist BKN001 OVC075 43 41     93% 39   30.21 30.21      
Feb 16 07:48 E 7 1 Fog/Mist BKN001 OVC075 43 39     87% 39   30.21        
Feb 16 07:36 E 6 0.75 Fog/Mist OVC002 42 40     92% 38   30.2        
Feb 16 07:32 E 6 1.5 Fog/Mist OVC002 42 40     92% 38   30.2        
May 13 14:54 WNW 10 10 Clear CLR 80 45     29%   79 29.91 29.89      
May 12 17:54 WNW 17 10 Clear CLR 82 38     21%   80 29.8 29.79      
May 12 12:54 WSW 6 10 Clear CLR 78 41     27%   77 29.87 29.85      
May 12 00:54 E 6 10 Clear CLR 67 43     42%     29.76 29.74      
Jun 11 23:54 N 18 10 Mostly Cloudy BKN080 61 42     50%     29.98 29.97      
Jun 11 09:54 NNW 13 10 Mostly Clear FEW039 64 43     46%     29.93 29.92      
Jun 11 07:54 NNW 15 10 Clear CLR 61 44     54%     29.91 29.9      
Jun 10 21:54 N 6 10 Clear CLR 71 46     41%   70 29.84 29.82      
Jun 10 18:54 NW 10 10 Clear CLR 77 46     33%   76 29.82 29.8      
Jun 10 15:54 W 10 10 Clear CLR 77 47     35%   76 29.85 29.84      
Jun 10 08:54 NW 8 10 Cloudy OVC048 63 43     48%     29.96 29.94      
Jun 08 21:54 NW 14 10 Clear   76 48     37%   75 29.92 29.9      
Jun 08 14:01 W 10 9 Mostly Clear FEW001 87 37     17%   84 29.94        
Jun 08 11:54 W 7 10 Clear CLR 81 46     29%   80 29.97 29.95      
Jun 08 06:54 ENE 5 10 Clear CLR 69 46     44%     29.97 29.95      
Jun 07 08:54 3 10 Clear CLR 78 45     31%   77 29.87 29.85